When you browse on this site, cookies collect data to enhance your experience and personalize the content and advertising you see.
Visit our Privacy Policy to learn more. By continuing to use the site, you agree to this use of cookies and data.
  • In Hungary
  • List of Countries
  • For 7 days
  • Water Temperature
  • Weather Map
  • News
  • Weather Widgets
  • user-avatar
    Login

    Hourly Weather Momynay

    Today, 9 December, Monday

    Time Temperature Precipitation Wind Pressure Humidity
    00:00 +7°C° 0 mm 2 mps 688 mmHg 38%
    01:00 +7°C° 0 mm 2 mps 688 mmHg 37%
    02:00 +7°C° 0 mm 2 mps 688 mmHg 36%
    03:00 +6°C° 0 mm 2 mps 687 mmHg 35%
    04:00 +6°C° 0 mm 2 mps 687 mmHg 34%
    05:00 +6°C° 0 mm 2 mps 687 mmHg 33%
    06:00 +7°C° 0 mm 2 mps 687 mmHg 33%
    07:00 +7°C° 0 mm 2 mps 687 mmHg 32%
    08:00 +7°C° 0 mm 2 mps 687 mmHg 32%
    09:00 +9°C° 0 mm 1 mps 687 mmHg 33%
    10:00 +11°C° 0 mm 1 mps 687 mmHg 35%
    11:00 +11°C° 0 mm 0 mps 688 mmHg 36%
    12:00 +11°C° 0 mm 0 mps 687 mmHg 38%
    13:00 +12°C° 0 mm 0 mps 687 mmHg 39%
    14:00 +12°C° 0 mm 0 mps 687 mmHg 40%
    15:00 +12°C° 0 mm 1 mps 687 mmHg 40%
    16:00 +11°C° 0 mm 1 mps 687 mmHg 40%
    17:00 +10°C° 0 mm 1 mps 687 mmHg 40%
    18:00 +10°C° 0 mm 1 mps 687 mmHg 40%
    19:00 +10°C° 0 mm 1 mps 687 mmHg 39%
    20:00 +9°C° 0 mm 1 mps 687 mmHg 39%
    21:00 +9°C° 0 mm 1 mps 687 mmHg 39%
    22:00 +9°C° 0 mm 1 mps 688 mmHg 38%
    23:00 +9°C° 0 mm 1 mps 688 mmHg 38%

    Tomorrow, 10 December, Tuesday

    Time Temperature Precipitation Wind Pressure Humidity
    00:00 +8°C° 0 mm 2 mps 688 mmHg 38%
    01:00 +8°C° 0 mm 2 mps 688 mmHg 38%
    02:00 +8°C° 0 mm 2 mps 688 mmHg 37%
    03:00 +8°C° 0 mm 2 mps 688 mmHg 38%
    04:00 +8°C° 0 mm 2 mps 688 mmHg 39%
    05:00 +8°C° 0 mm 3 mps 687 mmHg 40%
    06:00 +8°C° 0 mm 2 mps 688 mmHg 42%
    07:00 +8°C° 0 mm 2 mps 688 mmHg 45%
    08:00 +8°C° 0 mm 2 mps 688 mmHg 47%
    09:00 +9°C° 0 mm 2 mps 688 mmHg 49%
    10:00 +12°C° 0 mm 1 mps 689 mmHg 51%
    11:00 +13°C° 0 mm 1 mps 689 mmHg 53%
    12:00 +12°C° 0 mm 2 mps 689 mmHg 54%
    13:00 +12°C° 0 mm 2 mps 689 mmHg 55%
    14:00 +10°C° 0 mm 3 mps 689 mmHg 56%
    15:00 +9°C° 0.2 mm 2 mps 689 mmHg 64%
    16:00 +8°C° 0.2 mm 2 mps 689 mmHg 72%
    17:00 +7°C° 0.2 mm 2 mps 689 mmHg 80%
    18:00 +7°C° 0.3 mm 2 mps 689 mmHg 81%
    19:00 +7°C° 0.3 mm 2 mps 689 mmHg 82%
    20:00 +8°C° 0.3 mm 1 mps 689 mmHg 82%
    21:00 +8°C° 0.2 mm 1 mps 689 mmHg 82%
    22:00 +8°C° 0.2 mm 1 mps 689 mmHg 82%
    23:00 +8°C° 0.2 mm 1 mps 689 mmHg 82%

    Day after tomorrow, 11 December, Wednesday

    Time Temperature Precipitation Wind Pressure Humidity
    00:00 +8°C° 0.1 mm 1 mps 688 mmHg 82%
    01:00 +8°C° 0.1 mm 1 mps 688 mmHg 82%
    02:00 +7°C° 0.1 mm 0 mps 688 mmHg 83%
    03:00 +6°C° 0.2 mm 0 mps 688 mmHg 84%
    04:00 +6°C° 0.2 mm 0 mps 688 mmHg 86%
    05:00 +6°C° 0.2 mm 0 mps 688 mmHg 87%
    06:00 +7°C° 0.3 mm 1 mps 688 mmHg 88%
    07:00 +7°C° 0.3 mm 1 mps 688 mmHg 89%
    08:00 +7°C° 0.3 mm 1 mps 688 mmHg 90%
    09:00 +8°C° 0 mm 1 mps 688 mmHg 86%
    10:00 +8°C° 0 mm 1 mps 688 mmHg 83%
    11:00 +9°C° 0 mm 1 mps 688 mmHg 80%
    12:00 +9°C° 0 mm 1 mps 688 mmHg 78%
    13:00 +9°C° 0 mm 1 mps 688 mmHg 76%
    14:00 +10°C° 0 mm 1 mps 687 mmHg 75%
    15:00 +9°C° 0 mm 1 mps 687 mmHg 77%
    16:00 +8°C° 0 mm 1 mps 687 mmHg 80%
    17:00 +7°C° 0 mm 1 mps 687 mmHg 82%
    18:00 +7°C° 0 mm 1 mps 687 mmHg 82%
    19:00 +7°C° 0 mm 1 mps 687 mmHg 82%
    20:00 +7°C° 0 mm 1 mps 687 mmHg 82%
    21:00 +7°C° 0 mm 1 mps 687 mmHg 82%
    22:00 +7°C° 0 mm 1 mps 687 mmHg 82%
    23:00 +7°C° 0 mm 1 mps 687 mmHg 82%

    12 December, Thursday

    Time Temperature Precipitation Wind Pressure Humidity
    00:00 +6°C° 0 mm 1 mps 687 mmHg 83%
    01:00 +6°C° 0 mm 1 mps 687 mmHg 83%
    02:00 +6°C° 0 mm 1 mps 687 mmHg 84%
    03:00 +5°C° 0 mm 1 mps 687 mmHg 83%
    04:00 +5°C° 0 mm 1 mps 687 mmHg 82%
    05:00 +5°C° 0 mm 1 mps 687 mmHg 82%
    06:00 +5°C° 0 mm 1 mps 687 mmHg 80%
    07:00 +5°C° 0 mm 1 mps 687 mmHg 78%
    08:00 +4°C° 0 mm 1 mps 687 mmHg 76%
    09:00 +6°C° 0 mm 1 mps 687 mmHg 72%
    10:00 +7°C° 0 mm 1 mps 688 mmHg 69%
    11:00 +8°C° 0 mm 1 mps 688 mmHg 66%
    12:00 +9°C° 0 mm 1 mps 687 mmHg 66%
    13:00 +8°C° 0 mm 2 mps 687 mmHg 67%
    14:00 +8°C° 0 mm 2 mps 687 mmHg 68%
    15:00 +8°C° 0 mm 1 mps 687 mmHg 73%
    16:00 +7°C° 0 mm 1 mps 686 mmHg 78%
    17:00 +6°C° 0 mm 1 mps 686 mmHg 83%
    18:00 +6°C° 0 mm 1 mps 686 mmHg 83%
    19:00 +6°C° 0 mm 1 mps 687 mmHg 83%
    20:00 +6°C° 0 mm 1 mps 687 mmHg 82%
    21:00 +5°C° 0 mm 1 mps 687 mmHg 82%
    22:00 +5°C° 0 mm 1 mps 687 mmHg 82%
    23:00 +5°C° 0 mm 1 mps 687 mmHg 82%

    13 December, Friday

    Time Temperature Precipitation Wind Pressure Humidity
    00:00 +5°C° 0 mm 1 mps 687 mmHg 81%
    01:00 +5°C° 0 mm 1 mps 686 mmHg 80%
    02:00 +5°C° 0 mm 1 mps 686 mmHg 79%
    03:00 +4°C° 0 mm 1 mps 686 mmHg 81%
    04:00 +4°C° 0 mm 1 mps 686 mmHg 82%
    05:00 +4°C° 0 mm 1 mps 686 mmHg 84%
    06:00 +4°C° 0 mm 1 mps 686 mmHg 84%
    07:00 +4°C° 0 mm 1 mps 686 mmHg 84%
    08:00 +4°C° 0 mm 1 mps 687 mmHg 84%
    09:00 +5°C° 0 mm 1 mps 687 mmHg 80%
    10:00 +6°C° 0 mm 1 mps 687 mmHg 76%
    11:00 +6°C° 0 mm 1 mps 687 mmHg 72%
    12:00 +7°C° 0 mm 1 mps 686 mmHg 69%
    13:00 +8°C° 0 mm 1 mps 686 mmHg 67%
    14:00 +7°C° 0 mm 2 mps 686 mmHg 65%
    15:00 +7°C° 0 mm 1 mps 686 mmHg 69%
    16:00 +6°C° 0 mm 1 mps 685 mmHg 73%
    17:00 +5°C° 0 mm 1 mps 685 mmHg 77%
    18:00 +5°C° 0 mm 1 mps 686 mmHg 75%
    19:00 +5°C° 0 mm 1 mps 686 mmHg 73%
    20:00 +5°C° 0 mm 1 mps 686 mmHg 70%
    21:00 +4°C° 0 mm 2 mps 686 mmHg 66%
    22:00 +4°C° 0 mm 2 mps 686 mmHg 62%
    23:00 +4°C° 0 mm 2 mps 686 mmHg 58%

    14 December, Saturday

    Time Temperature Precipitation Wind Pressure Humidity
    00:00 +4°C° 0 mm 2 mps 686 mmHg 56%
    01:00 +4°C° 0 mm 2 mps 686 mmHg 54%
    02:00 +4°C° 0 mm 2 mps 686 mmHg 52%
    03:00 +4°C° 0 mm 2 mps 685 mmHg 52%
    04:00 +4°C° 0 mm 2 mps 685 mmHg 52%
    05:00 +4°C° 0 mm 2 mps 685 mmHg 52%
    06:00 +4°C° 0 mm 2 mps 685 mmHg 51%
    07:00 +4°C° 0 mm 2 mps 685 mmHg 50%
    08:00 +3°C° 0 mm 3 mps 685 mmHg 49%
    09:00 +6°C° 0 mm 2 mps 685 mmHg 47%
    10:00 +7°C° 0 mm 2 mps 686 mmHg 45%
    11:00 +9°C° 0 mm 2 mps 686 mmHg 43%
    12:00 +9°C° 0 mm 2 mps 686 mmHg 43%
    13:00 +10°C° 0 mm 2 mps 685 mmHg 42%
    14:00 +10°C° 0 mm 2 mps 685 mmHg 42%
    15:00 +10°C° 0 mm 1 mps 685 mmHg 44%
    16:00 +9°C° 0 mm 1 mps 685 mmHg 46%
    17:00 +8°C° 0 mm 1 mps 685 mmHg 49%
    18:00 +8°C° 0 mm 1 mps 685 mmHg 48%
    19:00 +8°C° 0 mm 1 mps 685 mmHg 48%
    20:00 +8°C° 0 mm 1 mps 685 mmHg 48%
    21:00 +7°C° 0 mm 1 mps 685 mmHg 53%
    22:00 +7°C° 0 mm 1 mps 686 mmHg 57%
    23:00 +5°C° 0 mm 0 mps 686 mmHg 62%
    Show more